DELTA 1 DEB, 10714

Orbit data source: Space-Track

DELTA 1 DEB, 10714 is space debris in LEO originally from a launch on Thu, 29 Jul 1976 UTC launched from the Air Force Western Test Range (AFWTR). Debris objects in space refer to the collection of defunct objects orbiting the Earth. Examples of debris include non-operational satellites, rocket bodies, and fragments generated from explosions, collisions, or faulty payload assembly.

Loading next visibility...
Identifier
10714, 1976-077AK
Orbit
LEO
Country
Flag of USUS
Related business
Manufacturer
Unknown
Mission
Spacecraft
Bus & Motor
Unknown
Mass
Unknown
Launch date (UTC)
1976-07-29 (50 years ago)
Launch vehicle
Unknown
Launch site
Air Force Western Test Range (AFWTR)
Object type
Payload
Rocket body
Debris
Shape & HBR
Unknown shape, 0.1 m
Radar Cross Section
Medium (>0.1 m² and <1 m²)

Expand to show TLE details & history
Last TLE update: 18 hours ago

TLE from 18 hours ago
0 DELTA 1 DEB
1 10714U 76077AK  26106.67206605  .00006532  00000-0  90572-1 0  9997
2 10714 103.3717   8.8738 0599441  66.9508 351.8141 11.54583291 85945
Epoch: 2026-04-16T16:07Z
TLE epoch observation values (Epoch: 2026-04-16T16:07:46.506Z)
Latitude
55.42599°
Longitude
-97.95773°
Altitude
1,409.683 km
Speed
7.37 km/s
True Right ascension
23h 15m 12s
True Declination
55° 16' 43"
Sunlit
Object was in daylight at epoch
Visualization orbit readout
Latitude
Unknown
Longitude
Unknown
Altitude
Unknown
Speed
Unknown
Apparent Right ascension
Unknown
Apparent Declination
Unknown
Sunlit
N/A
Visualization observer readout
Local Sidereal Time
17:07:48
Azimuth
Unknown
Elevation
Unknown
Doppler factor
Unknown
Orbital elements
Apogee altitude
2,384.137 km
Perigee altitude
1,393.054 km
Semi-major axis
8,266.732 km
Eccentricity
0.05994
Inclination
103.3717°
RAAN
8.8738°
Arg. of periapsis
66.9508°
True anomaly
350.75803°
Mean anomaly
351.8141°
Eccentric anomaly
351.29425°
Mean motion
2.88764 °/min
Orbital period
124.67 mins
BSTAR
0.090572
Loading maneuver chart data...
Computing Atmospheric mass density...
Loading historical data...
Loading historical data...
Loading historical data...
Loading historical data...
Loading historical data...
Loading historical data...
Loading historical data...

Documentation

Showing up to 5 results
|